| time (UTC) | temp F | wind direction | speed MPH | gust MPH | rain 1hr in | rain 24hr in | rain mn in | humidity % | barometer mb |
| 20260906230507 | 64 | 338 | 8.0 | 23.0 | 0.04 | 0.04 | 0.04 | 66 | 984.0 |
| 20260906230004 | 65 | 53 | 12.0 | 25.0 | 0.03 | 0.03 | 0.03 | 66 | 984.6 |
| 20260906225501 | 66 | 355 | 15.0 | 39.0 | 0.03 | 0.03 | 0.03 | 66 | 984.4 |
| 20260906224541 | 68 | 341 | 24.0 | 48.0 | 0.96 | 0.96 | 0.96 | 65 | 984.0 |
| 20260906224036 | 70 | 272 | 23.0 | 33.0 | 0.48 | 0.48 | 0.48 | 63 | 984.6 |
| 20260906223535 | 73 | 295 | 15.0 | 25.0 | 0.03 | 0.03 | 0.03 | 60 | 984.3 |
| 20260906223043 | 76 | 235 | 6.0 | 10.0 | 0.02 | 0.02 | 0.02 | 59 | 983.2 |
| 20260906222534 | 76 | 192 | 0.0 | 7.0 | 0.00 | 0.00 | 0.00 | 58 | 982.2 |
| 20260906222033 | 76 | 36 | 1.0 | 4.0 | 0.00 | 0.00 | 0.00 | 57 | 982.3 |
| 20260906221539 | 77 | 126 | 0.0 | 3.0 | 0.00 | 0.00 | 0.00 | 57 | 982.9 |
| 20260906221032 | 77 | 126 | 0.0 | 3.0 | 0.00 | 0.00 | 0.00 | 56 | 982.9 |
| 20260906220531 | 77 | 143 | 1.0 | 3.0 | 0.00 | 0.00 | 0.00 | 56 | 983.1 |
| 20260906220032 | 77 | 146 | 0.0 | 3.0 | 0.00 | 0.00 | 0.00 | 56 | 983.1 |
| 20260906215530 | 77 | 144 | 1.0 | 3.0 | 0.00 | 0.00 | 0.00 | 55 | 983.0 |
| 20260906215030 | 78 | 132 | 0.0 | 6.0 | 0.00 | 0.00 | 0.00 | 54 | 983.0 |
| 20260906214531 | 78 | 63 | 0.0 | 6.0 | 0.00 | 0.00 | 0.00 | 54 | 983.0 |
| 20260906214029 | 78 | 79 | 0.0 | 4.0 | 0.00 | 0.00 | 0.00 | 53 | 983.2 |
| 20260906213528 | 79 | 53 | 1.0 | 4.0 | 0.00 | 0.00 | 0.00 | 52 | 983.5 |
| 20260906213027 | 79 | 42 | 0.0 | 3.0 | 0.00 | 0.00 | 0.00 | 52 | 983.8 |
| 20260906212526 | 79 | 90 | 0.0 | 2.0 | 0.00 | 0.00 | 0.00 | 51 | 984.2 |
| 20260906212026 | 79 | 91 | 0.0 | 2.0 | 0.00 | 0.00 | 0.00 | 51 | 984.3 |
| 20260906211527 | 80 | 91 | 0.0 | 2.0 | 0.00 | 0.00 | 0.00 | 51 | 984.5 |
| 20260906211026 | 80 | 90 | 0.0 | 3.0 | 0.00 | 0.00 | 0.00 | 51 | 984.5 |
| 20260906210525 | 80 | 90 | 0.0 | 2.0 | 0.00 | 0.00 | 0.00 | 50 | 984.3 |
| 20260906210025 | 80 | 100 | 0.0 | 3.0 | 0.00 | 0.00 | 0.00 | 50 | 984.3 |
| 20260906205524 | 80 | 100 | 1.0 | 3.0 | 0.00 | 0.00 | 0.00 | 50 | 984.4 |
| 20260906205028 | 80 | 103 | 0.0 | 3.0 | 0.00 | 0.00 | 0.00 | 50 | 984.4 |
| 20260906204541 | 80 | 128 | 1.0 | 5.0 | 0.00 | 0.00 | 0.00 | 51 | 984.6 |
| 20260906204024 | 80 | 128 | 2.0 | 5.0 | 0.00 | 0.00 | 0.00 | 50 | 984.7 |
| 20260906203524 | 80 | 122 | 1.0 | 7.0 | 0.00 | 0.00 | 0.00 | 50 | 984.7 |
| 20260906203024 | 80 | 59 | 3.0 | 7.0 | 0.00 | 0.00 | 0.00 | 49 | 984.7 |
| 20260906202523 | 80 | 142 | 2.0 | 7.0 | 0.00 | 0.00 | 0.00 | 50 | 984.7 |
| 20260906202027 | 80 | 129 | 2.0 | 9.0 | 0.00 | 0.00 | 0.00 | 49 | 984.7 |
| 20260906201524 | 80 | 153 | 4.0 | 9.0 | 0.00 | 0.00 | 0.00 | 50 | 984.9 |
| 20260906201025 | 80 | 82 | 3.0 | 9.0 | 0.00 | 0.00 | 0.00 | 50 | 984.9 |
| 20260906200523 | 80 | 141 | 4.0 | 9.0 | 0.00 | 0.00 | 0.00 | 49 | 985.0 |
| 20260906200023 | 80 | 88 | 2.0 | 12.0 | 0.00 | 0.00 | 0.00 | 50 | 984.7 |
| 20260906195522 | 80 | 122 | 4.0 | 12.0 | 0.00 | 0.00 | 0.00 | 49 | 984.6 |
| 20260906195022 | 80 | 115 | 2.0 | 9.0 | 0.00 | 0.00 | 0.00 | 49 | 984.3 |
| 20260906194522 | 80 | 98 | 4.0 | 10.0 | 0.00 | 0.00 | 0.00 | 50 | 984.1 |
| 20260906194021 | 80 | 101 | 4.0 | 12.0 | 0.00 | 0.00 | 0.00 | 49 | 984.2 |
| 20260906193522 | 80 | 87 | 3.0 | 8.0 | 0.00 | 0.00 | 0.00 | 51 | 984.0 |
| 20260906193022 | 80 | 103 | 2.0 | 7.0 | 0.00 | 0.00 | 0.00 | 50 | 983.8 |
| 20260906192519 | 79 | 140 | 2.0 | 8.0 | 0.00 | 0.00 | 0.00 | 50 | 984.2 |
| 20260906192019 | 79 | 132 | 1.0 | 8.0 | 0.00 | 0.00 | 0.00 | 50 | 984.3 |
| 20260906191519 | 79 | 94 | 2.0 | 7.0 | 0.00 | 0.00 | 0.00 | 50 | 984.3 |
| 20260906191018 | 79 | 120 | 3.0 | 7.0 | 0.00 | 0.00 | 0.00 | 49 | 984.2 |
| 20260906190518 | 79 | 115 | 2.0 | 8.0 | 0.00 | 0.00 | 0.00 | 50 | 984.3 |
| 20260906190017 | 79 | 74 | 3.0 | 8.0 | 0.00 | 0.00 | 0.00 | 50 | 984.4 |
| 20260906185515 | 79 | 110 | 3.0 | 8.0 | 0.00 | 0.00 | 0.00 | 51 | 984.7 |
| 20260906185015 | 79 | 94 | 2.0 | 6.0 | 0.00 | 0.00 | 0.00 | 50 | 984.7 |
| 20260906184515 | 78 | 142 | 1.0 | 8.0 | 0.00 | 0.00 | 0.00 | 52 | 984.9 |
| 20260906184014 | 78 | 115 | 0.0 | 8.0 | 0.00 | 0.00 | 0.00 | 51 | 985.1 |
| 20260906183512 | 78 | 100 | 3.0 | 8.0 | 0.00 | 0.00 | 0.00 | 51 | 985.2 |
| 20260906183014 | 78 | 360 | 3.0 | 14.0 | 0.00 | 0.00 | 0.00 | 51 | 985.3 |
| 20260906182510 | 78 | 67 | 4.0 | 14.0 | 0.00 | 0.00 | 0.00 | 52 | 985.2 |
| 20260906182013 | 78 | 26 | 3.0 | 9.0 | 0.00 | 0.00 | 0.00 | 52 | 985.2 |
| 20260906181508 | 78 | 73 | 3.0 | 9.0 | 0.00 | 0.00 | 0.00 | 52 | 985.3 |
| 20260906181008 | 77 | 24 | 3.0 | 10.0 | 0.00 | 0.00 | 0.00 | 53 | 985.5 |
| 20260906180510 | 77 | 46 | 3.0 | 10.0 | 0.00 | 0.00 | 0.00 | 52 | 985.6 |
| 20260906180007 | 77 | 75 | 5.0 | 9.0 | 0.00 | 0.00 | 0.00 | 52 | 985.7 |
| 20260906175506 | 77 | 83 | 2.0 | 7.0 | 0.00 | 0.00 | 0.00 | 55 | 985.7 |
| 20260906175005 | 77 | 59 | 3.0 | 8.0 | 0.00 | 0.00 | 0.00 | 53 | 985.7 |
| 20260906174505 | 77 | 70 | 4.0 | 8.0 | 0.00 | 0.00 | 0.00 | 53 | 985.9 |
| 20260906174005 | 77 | 86 | 1.0 | 7.0 | 0.00 | 0.00 | 0.00 | 54 | 986.1 |
| 20260906173504 | 76 | 88 | 2.0 | 7.0 | 0.00 | 0.00 | 0.00 | 54 | 986.4 |
| 20260906173002 | 76 | 29 | 0.0 | 8.0 | 0.00 | 0.00 | 0.00 | 55 | 986.5 |
| 20260906172502 | 76 | 69 | 0.0 | 8.0 | 0.00 | 0.00 | 0.00 | 56 | 986.5 |
| 20260906172101 | 75 | 96 | 2.0 | 6.0 | 0.00 | 0.00 | 0.00 | 56 | 986.5 |
| 20260906171604 | 75 | 59 | 1.0 | 5.0 | 0.00 | 0.00 | 0.00 | 58 | 986.5 |
| 20260906171057 | 74 | 345 | 1.0 | 4.0 | 0.00 | 0.00 | 0.00 | 59 | 986.4 |
| 20260906170556 | 74 | 59 | 0.0 | 4.0 | 0.00 | 0.00 | 0.00 | 61 | 986.4 |
| 20260906170108 | 73 | 360 | 0.0 | 6.0 | 0.00 | 0.00 | 0.00 | 62 | 986.4 |
| 20260906165554 | 72 | 42 | 2.0 | 6.0 | 0.00 | 0.00 | 0.00 | 63 | 986.5 |
| 20260906165055 | 72 | 360 | 1.0 | 6.0 | 0.00 | 0.00 | 0.00 | 64 | 986.7 |
| 20260906164550 | 71 | 53 | 2.0 | 6.0 | 0.00 | 0.00 | 0.00 | 65 | 986.9 |
| 20260906164049 | 70 | 98 | 2.0 | 9.0 | 0.00 | 0.00 | 0.00 | 66 | 986.9 |
| 20260906163547 | 70 | 355 | 3.0 | 9.0 | 0.00 | 0.00 | 0.00 | 67 | 986.8 |
| 20260906163055 | 70 | 9 | 1.0 | 6.0 | 0.00 | 0.00 | 0.00 | 68 | 986.9 |
| 20260906162545 | 69 | 96 | 3.0 | 6.0 | 0.00 | 0.00 | 0.00 | 69 | 986.9 |
| 20260906162043 | 69 | 117 | 1.0 | 3.0 | 0.00 | 0.00 | 0.00 | 69 | 987.0 |
| 20260906161545 | 68 | 333 | 0.0 | 3.0 | 0.00 | 0.00 | 0.00 | 69 | 987.0 |
| 20260906161039 | 68 | 76 | 1.0 | 6.0 | 0.00 | 0.00 | 0.00 | 69 | 987.0 |
| 20260906160539 | 67 | 91 | 0.0 | 6.0 | 0.00 | 0.00 | 0.00 | 69 | 987.2 |
| 20260906160046 | 67 | 84 | 2.0 | 4.0 | 0.00 | 0.00 | 0.00 | 69 | 987.2 |
| 20260906155541 | 66 | 55 | 0.0 | 4.0 | 0.00 | 0.00 | 0.00 | 69 | 987.2 |
| 20260906155036 | 66 | 43 | 2.0 | 4.0 | 0.00 | 0.00 | 0.00 | 69 | 987.2 |
| 20260906154536 | 66 | 15 | 1.0 | 4.0 | 0.00 | 0.00 | 0.00 | 69 | 987.3 |
| 20260906154037 | 66 | 300 | 2.0 | 4.0 | 0.00 | 0.00 | 0.00 | 69 | 987.3 |
| 20260906153534 | 66 | 338 | 1.0 | 4.0 | 0.00 | 0.00 | 0.00 | 69 | 987.3 |
| 20260906153040 | 66 | 360 | 1.0 | 3.0 | 0.00 | 0.00 | 0.00 | 69 | 987.2 |
| 20260906152534 | 65 | 132 | 0.0 | 2.0 | 0.00 | 0.00 | 0.00 | 69 | 987.2 |
| 20260906152030 | 65 | 132 | 0.0 | 2.0 | 0.00 | 0.00 | 0.00 | 69 | 987.1 |
| 20260906151530 | 65 | 144 | 0.0 | 2.0 | 0.00 | 0.00 | 0.00 | 69 | 987.2 |
| 20260906151028 | 64 | 144 | 0.0 | 2.0 | 0.00 | 0.00 | 0.00 | 69 | 987.4 |
| 20260906150528 | 64 | 144 | 0.0 | 1.0 | 0.00 | 0.00 | 0.00 | 69 | 987.3 |
| 20260906150029 | 64 | 144 | 0.0 | 1.0 | 0.00 | 0.00 | 0.00 | 69 | 987.4 |
| 20260906145526 | 64 | 144 | 0.0 | 1.0 | 0.00 | 0.11 | 0.00 | 69 | 987.3 |
| 20260906145027 | 63 | 144 | 0.0 | 2.0 | 0.00 | 0.11 | 0.00 | 69 | 987.3 |
| 20260906144525 | 63 | 144 | 0.0 | 3.0 | 0.00 | 0.11 | 0.00 | 69 | 987.4 |
| 20260906144025 | 63 | 144 | 0.0 | 3.0 | 0.00 | 0.11 | 0.00 | 70 | 987.3 |
| 20260906143524 | 63 | 148 | 0.0 | 2.0 | 0.00 | 0.11 | 0.00 | 70 | 987.2 |
| 20260906143023 | 63 | 148 | 0.0 | 1.0 | 0.00 | 0.11 | 0.00 | 70 | 987.0 |
| 20260906142524 | 63 | 148 | 0.0 | 2.0 | 0.00 | 0.11 | 0.00 | 69 | 986.9 |
| 20260906142024 | 63 | 148 | 0.0 | 3.0 | 0.00 | 0.11 | 0.00 | 69 | 986.8 |
| 20260906141523 | 62 | 150 | 0.0 | 3.0 | 0.00 | 0.11 | 0.00 | 70 | 986.8 |
| 20260906141022 | 62 | 144 | 0.0 | 3.0 | 0.00 | 0.11 | 0.00 | 70 | 986.8 |
| 20260906140522 | 62 | 138 | 0.0 | 3.0 | 0.00 | 0.11 | 0.00 | 70 | 986.9 |
| 20260906140023 | 62 | 125 | 0.0 | 3.0 | 0.00 | 0.11 | 0.00 | 70 | 986.9 |
| 20260906135522 | 62 | 142 | 1.0 | 3.0 | 0.00 | 0.20 | 0.00 | 70 | 987.0 |
| 20260906135020 | 62 | 134 | 1.0 | 3.0 | 0.00 | 0.20 | 0.00 | 70 | 987.1 |
| 20260906134522 | 62 | 130 | 0.0 | 2.0 | 0.00 | 0.20 | 0.00 | 70 | 987.1 |
| 20260906134021 | 61 | 130 | 0.0 | 0.0 | 0.00 | 0.20 | 0.00 | 70 | 987.2 |
| 20260906133523 | 61 | 130 | 0.0 | 0.0 | 0.00 | 0.20 | 0.00 | 70 | 987.4 |
| 20260906133020 | 61 | 130 | 0.0 | 3.0 | 0.00 | 0.20 | 0.00 | 70 | 987.5 |
| 20260906132520 | 61 | 130 | 0.0 | 3.0 | 0.00 | 0.20 | 0.00 | 70 | 987.5 |
| 20260906132020 | 61 | 134 | 0.0 | 2.0 | 0.00 | 0.20 | 0.00 | 70 | 987.6 |
| 20260906131520 | 61 | 134 | 0.0 | 1.0 | 0.00 | 0.20 | 0.00 | 70 | 987.6 |
| 20260906131019 | 61 | 134 | 0.0 | 0.0 | 0.00 | 0.20 | 0.00 | 70 | 987.6 |
| 20260906130521 | 60 | 134 | 0.0 | 0.0 | 0.00 | 0.20 | 0.00 | 70 | 987.6 |
| 20260906130022 | 60 | 134 | 0.0 | 1.0 | 0.00 | 0.20 | 0.00 | 70 | 987.5 |
| 20260906125519 | 60 | 134 | 0.0 | 1.0 | 0.00 | 0.24 | 0.00 | 70 | 987.5 |
| 20260906125018 | 60 | 134 | 0.0 | 1.0 | 0.00 | 0.24 | 0.00 | 70 | 987.5 |
| 20260906124517 | 60 | 134 | 0.0 | 1.0 | 0.00 | 0.24 | 0.00 | 70 | 987.2 |
| 20260906124021 | 60 | 134 | 0.0 | 0.0 | 0.00 | 0.24 | 0.00 | 70 | 987.3 |
| 20260906123521 | 59 | 134 | 0.0 | 1.0 | 0.00 | 0.24 | 0.00 | 70 | 987.3 |
| 20260906123018 | 59 | 134 | 0.0 | 1.0 | 0.00 | 0.24 | 0.00 | 70 | 987.2 |
| 20260906122517 | 59 | 134 | 0.0 | 1.0 | 0.00 | 0.24 | 0.00 | 70 | 986.8 |
| 20260906122017 | 59 | 135 | 0.0 | 1.0 | 0.00 | 0.24 | 0.00 | 70 | 986.9 |
| 20260906121517 | 59 | 135 | 0.0 | 1.0 | 0.00 | 0.24 | 0.00 | 70 | 987.0 |
| 20260906121016 | 59 | 135 | 0.0 | 0.0 | 0.00 | 0.24 | 0.00 | 70 | 987.2 |
| 20260906120517 | 59 | 135 | 0.0 | 0.0 | 0.00 | 0.24 | 0.00 | 70 | 987.3 |
| 20260906120015 | 59 | 135 | 0.0 | 1.0 | 0.00 | 0.24 | 0.00 | 70 | 987.2 |
| 20260906115516 | 59 | 135 | 0.0 | 1.0 | 0.00 | 0.24 | 0.00 | 70 | 987.0 |
| 20260906115014 | 59 | 135 | 0.0 | 0.0 | 0.00 | 0.24 | 0.00 | 70 | 987.0 |
| 20260906114528 | 59 | 135 | 0.0 | 0.0 | 0.00 | 0.24 | 0.00 | 70 | 987.1 |
| 20260906114015 | 59 | 135 | 0.0 | 0.0 | 0.00 | 0.24 | 0.00 | 70 | 987.1 |
| 20260906113513 | 59 | 135 | 0.0 | 0.0 | 0.00 | 0.24 | 0.00 | 70 | 987.2 |
| 20260906113017 | 59 | 135 | 0.0 | 0.0 | 0.00 | 0.24 | 0.00 | 70 | 987.1 |
| 20260906112513 | 59 | 135 | 0.0 | 0.0 | 0.00 | 0.24 | 0.00 | 70 | 987.0 |
| 20260906112013 | 59 | 135 | 0.0 | 1.0 | 0.00 | 0.24 | 0.00 | 70 | 986.9 |
| 20260906111513 | 59 | 135 | 0.0 | 3.0 | 0.00 | 0.24 | 0.00 | 70 | 987.0 |
| 20260906111012 | 59 | 135 | 0.0 | 3.0 | 0.00 | 0.24 | 0.00 | 70 | 987.0 |
| 20260906110512 | 59 | 13 | 0.0 | 0.0 | 0.00 | 0.24 | 0.00 | 70 | 987.0 |
| 20260906110013 | 58 | 14 | 0.0 | 0.0 | 0.00 | 0.24 | 0.00 | 70 | 986.9 |
| 20260906105514 | 58 | 13 | 0.0 | 0.0 | 0.00 | 0.24 | 0.00 | 69 | 986.8 |
| 20260906105010 | 58 | 14 | 0.0 | 0.0 | 0.00 | 0.24 | 0.00 | 70 | 986.9 |
| 20260906104514 | 58 | 14 | 0.0 | 0.0 | 0.00 | 0.24 | 0.00 | 70 | 986.9 |
| 20260906104009 | 58 | 13 | 0.0 | 0.0 | 0.00 | 0.24 | 0.00 | 69 | 986.9 |
| 20260906103509 | 58 | 14 | 0.0 | 0.0 | 0.00 | 0.24 | 0.00 | 70 | 986.9 |
| 20260906103009 | 59 | 13 | 0.0 | 0.0 | 0.00 | 0.24 | 0.00 | 70 | 986.7 |
| 20260906102508 | 59 | 13 | 0.0 | 0.0 | 0.00 | 0.24 | 0.00 | 70 | 986.5 |
| 20260906102008 | 58 | 14 | 0.0 | 0.0 | 0.00 | 0.24 | 0.00 | 70 | 986.6 |
| 20260906101518 | 58 | 14 | 0.0 | 0.0 | 0.00 | 0.24 | 0.00 | 70 | 986.6 |
| 20260906101007 | 58 | 14 | 0.0 | 0.0 | 0.00 | 0.24 | 0.00 | 70 | 986.7 |
| 20260906100509 | 58 | 13 | 0.0 | 2.0 | 0.00 | 0.24 | 0.00 | 69 | 986.6 |
| 20260906100007 | 58 | 14 | 0.0 | 2.0 | 0.00 | 0.24 | 0.00 | 69 | 986.5 |
| 20260906095507 | 58 | 14 | 0.0 | 0.0 | 0.00 | 0.24 | 0.00 | 69 | 986.6 |
| 20260906095006 | 58 | 14 | 0.0 | 2.0 | 0.00 | 0.24 | 0.00 | 69 | 986.6 |
| 20260906094506 | 58 | 14 | 0.0 | 2.0 | 0.00 | 0.24 | 0.00 | 69 | 986.6 |
| 20260906094005 | 58 | 14 | 1.0 | 3.0 | 0.00 | 0.24 | 0.00 | 69 | 986.4 |
| 20260906093505 | 58 | 14 | 1.0 | 3.0 | 0.00 | 0.24 | 0.00 | 69 | 986.3 |
| 20260906093005 | 58 | 140 | 0.0 | 0.0 | 0.00 | 0.24 | 0.00 | 69 | 986.4 |
| 20260906092504 | 58 | 140 | 0.0 | 0.0 | 0.00 | 0.24 | 0.00 | 69 | 986.4 |
| 20260906092004 | 58 | 140 | 0.0 | 0.0 | 0.00 | 0.24 | 0.00 | 69 | 986.5 |
| 20260906091504 | 58 | 140 | 0.0 | 0.0 | 0.00 | 0.24 | 0.00 | 69 | 986.4 |
| 20260906091002 | 59 | 140 | 0.0 | 0.0 | 0.00 | 0.24 | 0.00 | 69 | 986.6 |
| 20260906090502 | 59 | 140 | 0.0 | 0.0 | 0.00 | 0.24 | 0.00 | 69 | 986.4 |
| 20260906090002 | 59 | 140 | 0.0 | 0.0 | 0.00 | 0.24 | 0.00 | 69 | 986.6 |
| 20260906085502 | 59 | 140 | 0.0 | 0.0 | 0.00 | 0.24 | 0.00 | 69 | 986.5 |
| 20260906085059 | 59 | 140 | 0.0 | 0.0 | 0.00 | 0.24 | 0.00 | 68 | 986.5 |
| 20260906084559 | 60 | 140 | 0.0 | 1.0 | 0.00 | 0.24 | 0.00 | 69 | 986.4 |
| 20260906084058 | 60 | 140 | 0.0 | 1.0 | 0.00 | 0.24 | 0.00 | 69 | 986.4 |
| 20260906083602 | 60 | 140 | 0.0 | 2.0 | 0.00 | 0.24 | 0.00 | 69 | 986.3 |
| 20260906083100 | 60 | 140 | 0.0 | 3.0 | 0.00 | 0.24 | 0.00 | 69 | 986.2 |
| 20260906082558 | 60 | 136 | 0.0 | 2.0 | 0.00 | 0.24 | 0.00 | 69 | 986.3 |
| 20260906082058 | 60 | 136 | 0.0 | 0.0 | 0.00 | 0.24 | 0.00 | 69 | 986.2 |
| 20260906081557 | 60 | 136 | 0.0 | 0.0 | 0.00 | 0.24 | 0.00 | 68 | 986.1 |
| 20260906081101 | 60 | 136 | 0.0 | 0.0 | 0.00 | 0.24 | 0.00 | 69 | 986.0 |
| 20260906080600 | 60 | 136 | 0.0 | 0.0 | 0.00 | 0.24 | 0.00 | 68 | 986.1 |
| 20260906075554 | 60 | 136 | 0.0 | 2.0 | 0.00 | 0.24 | 0.00 | 68 | 986.0 |
| 20260906075053 | 61 | 136 | 0.0 | 2.0 | 0.00 | 0.24 | 0.00 | 68 | 986.0 |
| 20260906074554 | 61 | 136 | 0.0 | 0.0 | 0.00 | 0.24 | 0.00 | 68 | 986.1 |
| 20260906074052 | 61 | 136 | 0.0 | 0.0 | 0.00 | 0.24 | 0.00 | 68 | 986.2 |
| 20260906073553 | 61 | 136 | 0.0 | 0.0 | 0.00 | 0.24 | 0.00 | 68 | 986.2 |
| 20260906073054 | 61 | 136 | 0.0 | 0.0 | 0.00 | 0.24 | 0.00 | 68 | 986.1 |
| 20260906072552 | 61 | 136 | 0.0 | 0.0 | 0.00 | 0.24 | 0.00 | 68 | 986.1 |
| 20260906072052 | 61 | 136 | 0.0 | 0.0 | 0.00 | 0.24 | 0.00 | 68 | 986.2 |
| 20260906071554 | 61 | 136 | 0.0 | 0.0 | 0.00 | 0.24 | 0.00 | 68 | 986.3 |
| 20260906071050 | 61 | 136 | 0.0 | 0.0 | 0.00 | 0.24 | 0.00 | 68 | 986.3 |
| 20260906070550 | 62 | 136 | 0.0 | 1.0 | 0.00 | 0.24 | 0.00 | 68 | 986.3 |
| 20260906070056 | 62 | 136 | 0.0 | 1.0 | 0.00 | 0.24 | 0.00 | 68 | 986.3 |
| 20260906065549 | 62 | 136 | 0.0 | 0.0 | 0.00 | 0.24 | 0.00 | 68 | 986.4 |
| 20260906065049 | 62 | 136 | 0.0 | 1.0 | 0.00 | 0.24 | 0.00 | 68 | 986.3 |
| 20260906064552 | 62 | 136 | 0.0 | 1.0 | 0.00 | 0.24 | 0.00 | 68 | 986.2 |
| 20260906064048 | 62 | 136 | 0.0 | 1.0 | 0.00 | 0.24 | 0.00 | 68 | 986.4 |
| 20260906063548 | 62 | 136 | 0.0 | 1.0 | 0.00 | 0.24 | 0.00 | 68 | 986.3 |
| 20260906063049 | 62 | 136 | 0.0 | 0.0 | 0.00 | 0.24 | 0.00 | 68 | 986.3 |
| 20260906062546 | 62 | 136 | 0.0 | 0.0 | 0.00 | 0.24 | 0.00 | 68 | 986.3 |
| 20260906062046 | 62 | 136 | 0.0 | 0.0 | 0.00 | 0.24 | 0.00 | 68 | 986.2 |
| 20260906061545 | 62 | 136 | 0.0 | 0.0 | 0.00 | 0.24 | 0.00 | 68 | 986.2 |
| 20260906061045 | 62 | 136 | 0.0 | 0.0 | 0.00 | 0.24 | 0.00 | 67 | 986.3 |
| 20260906060545 | 62 | 136 | 0.0 | 0.0 | 0.00 | 0.24 | 0.00 | 67 | 986.3 |
| 20260906060045 | 62 | 136 | 0.0 | 0.0 | 0.00 | 0.24 | 0.00 | 67 | 986.3 |
| 20260906055545 | 62 | 136 | 0.0 | 0.0 | 0.00 | 0.24 | 0.00 | 67 | 986.3 |
| 20260906055044 | 62 | 136 | 0.0 | 0.0 | 0.00 | 0.24 | 0.00 | 67 | 986.3 |
| 20260906054557 | 62 | 136 | 0.0 | 0.0 | 0.00 | 0.24 | 0.00 | 67 | 986.2 |
| 20260906054043 | 62 | 136 | 0.0 | 0.0 | 0.00 | 0.24 | 0.00 | 67 | 986.1 |
| 20260906053543 | 62 | 136 | 0.0 | 0.0 | 0.00 | 0.24 | 0.00 | 67 | 986.2 |
| 20260906053042 | 62 | 136 | 0.0 | 0.0 | 0.00 | 0.24 | 0.00 | 67 | 986.3 |
| 20260906052542 | 62 | 136 | 0.0 | 0.0 | 0.00 | 0.24 | 0.00 | 67 | 986.3 |
| 20260906052041 | 62 | 136 | 0.0 | 0.0 | 0.00 | 0.24 | 0.00 | 66 | 986.2 |
| 20260906051602 | 62 | 136 | 0.0 | 0.0 | 0.00 | 0.24 | 0.00 | 66 | 986.3 |
| 20260906051040 | 62 | 136 | 0.0 | 1.0 | 0.00 | 0.24 | 0.00 | 66 | 986.2 |
| 20260906050543 | 62 | 136 | 0.0 | 1.0 | 0.00 | 0.24 | 0.00 | 66 | 986.3 |
| 20260906050044 | 63 | 136 | 0.0 | 1.0 | 0.00 | 0.24 | 0.00 | 66 | 986.2 |
| 20260906045541 | 63 | 136 | 0.0 | 0.0 | 0.00 | 0.24 | 0.24 | 65 | 986.2 |
| 20260906045041 | 63 | 136 | 0.0 | 0.0 | 0.00 | 0.24 | 0.24 | 65 | 986.1 |
| 20260906044548 | 63 | 136 | 0.0 | 1.0 | 0.00 | 0.24 | 0.24 | 65 | 986.2 |
| 20260906044037 | 63 | 136 | 0.0 | 1.0 | 0.00 | 0.24 | 0.24 | 64 | 986.3 |
| 20260906043537 | 64 | 136 | 0.0 | 1.0 | 0.00 | 0.24 | 0.24 | 64 | 986.3 |
| 20260906043038 | 64 | 136 | 0.0 | 3.0 | 0.00 | 0.24 | 0.24 | 65 | 986.4 |
| 20260906042537 | 64 | 136 | 1.0 | 3.0 | 0.00 | 0.24 | 0.24 | 65 | 986.3 |
| 20260906042041 | 64 | 150 | 1.0 | 3.0 | 0.00 | 0.24 | 0.24 | 65 | 986.3 |
| 20260906041537 | 64 | 139 | 0.0 | 2.0 | 0.00 | 0.24 | 0.24 | 65 | 986.5 |
| 20260906041038 | 64 | 139 | 0.0 | 2.0 | 0.00 | 0.24 | 0.24 | 64 | 986.5 |
| 20260906040537 | 64 | 139 | 0.0 | 1.0 | 0.00 | 0.24 | 0.24 | 64 | 986.4 |
| 20260906040110 | 65 | 139 | 0.0 | 1.0 | 0.00 | 0.24 | 0.24 | 63 | 986.4 |
| 20260906035537 | 65 | 139 | 0.0 | 1.0 | 0.00 | 0.24 | 0.24 | 63 | 986.4 |
| 20260906035036 | 65 | 139 | 0.0 | 1.0 | 0.00 | 0.24 | 0.24 | 63 | 986.4 |
| 20260906034536 | 66 | 139 | 0.0 | 2.0 | 0.00 | 0.24 | 0.24 | 63 | 986.3 |
| 20260906034036 | 66 | 139 | 0.0 | 4.0 | 0.00 | 0.24 | 0.24 | 63 | 986.3 |
| 20260906033536 | 66 | 139 | 1.0 | 4.0 | 0.00 | 0.24 | 0.24 | 63 | 986.3 |
| 20260906033048 | 66 | 148 | 0.0 | 2.0 | 0.00 | 0.24 | 0.24 | 63 | 986.3 |
| 20260906032539 | 67 | 148 | 0.0 | 3.0 | 0.00 | 0.24 | 0.24 | 63 | 986.2 |
| 20260906032035 | 67 | 148 | 0.0 | 4.0 | 0.00 | 0.24 | 0.24 | 63 | 986.2 |
| 20260906031536 | 67 | 146 | 0.0 | 1.0 | 0.00 | 0.24 | 0.24 | 63 | 986.1 |
| 20260906031037 | 67 | 146 | 0.0 | 2.0 | 0.00 | 0.24 | 0.24 | 63 | 986.1 |
| 20260906030535 | 67 | 146 | 1.0 | 5.0 | 0.00 | 0.24 | 0.24 | 63 | 986.0 |
| 20260906030035 | 67 | 146 | 1.0 | 5.0 | 0.00 | 0.24 | 0.24 | 64 | 986.1 |
| 20260906025534 | 67 | 166 | 1.0 | 4.0 | 0.00 | 0.24 | 0.24 | 64 | 986.2 |
| 20260906025034 | 67 | 193 | 0.0 | 0.0 | 0.00 | 0.24 | 0.24 | 64 | 986.2 |
| 20260906024534 | 67 | 194 | 0.0 | 0.0 | 0.00 | 0.24 | 0.24 | 64 | 986.2 |
| 20260906024034 | 67 | 194 | 0.0 | 0.0 | 0.00 | 0.24 | 0.24 | 63 | 986.2 |
| 20260906023534 | 67 | 194 | 0.0 | 0.0 | 0.00 | 0.24 | 0.24 | 63 | 986.2 |
| 20260906023034 | 67 | 194 | 0.0 | 0.0 | 0.00 | 0.24 | 0.24 | 63 | 986.0 |
| 20260906022534 | 67 | 194 | 0.0 | 0.0 | 0.00 | 0.24 | 0.24 | 64 | 986.2 |
| 20260906022034 | 67 | 194 | 0.0 | 0.0 | 0.00 | 0.24 | 0.24 | 63 | 986.0 |
| 20260906021534 | 67 | 194 | 0.0 | 0.0 | 0.00 | 0.24 | 0.24 | 64 | 986.0 |
| 20260906021033 | 67 | 194 | 0.0 | 0.0 | 0.00 | 0.24 | 0.24 | 63 | 985.9 |
| 20260906020534 | 67 | 194 | 0.0 | 0.0 | 0.00 | 0.24 | 0.24 | 63 | 985.9 |
| 20260906020035 | 67 | 194 | 0.0 | 0.0 | 0.00 | 0.24 | 0.24 | 62 | 985.9 |
| 20260906015533 | 67 | 194 | 0.0 | 0.0 | 0.00 | 0.24 | 0.24 | 61 | 985.9 |
| 20260906015033 | 68 | 194 | 0.0 | 0.0 | 0.00 | 0.24 | 0.24 | 61 | 985.9 |
| 20260906014533 | 68 | 194 | 0.0 | 0.0 | 0.00 | 0.24 | 0.24 | 60 | 985.9 |
| 20260906014032 | 69 | 194 | 0.0 | 0.0 | 0.00 | 0.24 | 0.24 | 60 | 985.7 |
| 20260906013532 | 69 | 194 | 0.0 | 0.0 | 0.00 | 0.24 | 0.24 | 59 | 985.6 |
| 20260906013034 | 70 | 194 | 0.0 | 0.0 | 0.00 | 0.24 | 0.24 | 58 | 985.6 |
| 20260906012532 | 70 | 194 | 0.0 | 0.0 | 0.00 | 0.24 | 0.24 | 57 | 985.5 |
| 20260906012032 | 71 | 194 | 0.0 | 0.0 | 0.00 | 0.24 | 0.24 | 57 | 985.5 |
| 20260906011532 | 72 | 194 | 0.0 | 0.0 | 0.00 | 0.24 | 0.24 | 57 | 985.3 |
| 20260906011031 | 73 | 194 | 0.0 | 0.0 | 0.00 | 0.24 | 0.24 | 57 | 985.3 |
| 20260906010531 | 73 | 194 | 0.0 | 0.0 | 0.00 | 0.24 | 0.24 | 57 | 985.4 |
| 20260906010032 | 74 | 194 | 0.0 | 0.0 | 0.00 | 0.24 | 0.24 | 57 | 985.4 |
| 20260906005531 | 74 | 194 | 0.0 | 0.0 | 0.00 | 0.24 | 0.24 | 57 | 985.4 |
| 20260906005031 | 75 | 194 | 0.0 | 0.0 | 0.00 | 0.24 | 0.24 | 56 | 985.4 |
| 20260906004530 | 75 | 194 | 0.0 | 0.0 | 0.00 | 0.24 | 0.24 | 56 | 985.3 |
| 20260906004031 | 76 | 194 | 0.0 | 1.0 | 0.00 | 0.24 | 0.24 | 55 | 985.2 |
| 20260906003535 | 77 | 194 | 0.0 | 1.0 | 0.00 | 0.24 | 0.24 | 55 | 984.9 |
| 20260906003030 | 77 | 194 | 0.0 | 2.0 | 0.00 | 0.24 | 0.24 | 55 | 985.0 |
| 20260906002532 | 77 | 194 | 0.0 | 3.0 | 0.00 | 0.24 | 0.24 | 55 | 984.8 |
| 20260906002030 | 77 | 194 | 0.0 | 4.0 | 0.00 | 0.24 | 0.24 | 55 | 984.9 |
| 20260906001533 | 77 | 182 | 0.0 | 4.0 | 0.00 | 0.24 | 0.24 | 54 | 984.9 |
| 20260906001030 | 77 | 188 | 0.0 | 4.0 | 0.00 | 0.24 | 0.24 | 54 | 984.9 |
| 20260906000530 | 77 | 184 | 0.0 | 0.0 | 0.00 | 0.24 | 0.24 | 54 | 984.8 |
| 20260906000031 | 76 | 184 | 0.0 | 0.0 | 0.00 | 0.24 | 0.24 | 55 | 984.8 |
| 20260905235529 | 76 | 184 | 0.0 | 0.0 | 0.00 | 0.24 | 0.24 | 55 | 984.6 |
| 20260905235030 | 75 | 184 | 0.0 | 1.0 | 0.00 | 0.24 | 0.24 | 55 | 984.7 |
| 20260905234529 | 75 | 184 | 0.0 | 1.0 | 0.00 | 0.24 | 0.24 | 55 | 984.7 |
| 20260905234029 | 75 | 184 | 0.0 | 0.0 | 0.00 | 0.24 | 0.24 | 55 | 984.7 |
| 20260905233529 | 75 | 184 | 0.0 | 0.0 | 0.00 | 0.24 | 0.24 | 55 | 984.6 |
| 20260905233029 | 75 | 184 | 0.0 | 1.0 | 0.00 | 0.24 | 0.24 | 55 | 984.6 |
| 20260905232529 | 75 | 184 | 0.0 | 3.0 | 0.00 | 0.24 | 0.24 | 55 | 984.5 |
| 20260905232029 | 75 | 184 | 0.0 | 3.0 | 0.00 | 0.24 | 0.24 | 55 | 984.5 |
| 20260905231529 | 75 | 184 | 0.0 | 4.0 | 0.00 | 0.24 | 0.24 | 55 | 984.5 |
| 20260905231028 | 76 | 182 | 2.0 | 4.0 | 0.00 | 0.24 | 0.24 | 55 | 984.5 |